EWG3AZ LOWI-EDDL

Flight info

Callsign EWG3AZ
Flight time 1h 15m
Altitude 32000
Route ADILO Y703 MOGTI P66 KPT L608 TEDGO/N0445F330 DCT HAREM DCT LOHRE/N0448F320 Z850 ARPEG/N0412F240 Z850 ADEMI T854 DOMUX DOMUX1A
Aircraft A320/M-SDE3FGHIRWY/LB1

Departure

Time 2026-05-04 18:53
Airport Innsbruck Airport (LOWI)

Arrival

Time 2026-05-04 20:09
Airport Düsseldorf Airport (EDDL)
Time Latitude Longitude Altitude Speed Heading
2026-05-04 18:22 47.25800 11.34809 1892 ft 0 kts 170°
2026-05-04 18:48 47.25808 11.34807 1887 ft 2 kts 170°
2026-05-04 18:48 47.25824 11.34802 1890 ft 2 kts 174°
2026-05-04 18:48 47.25840 11.34808 1888 ft 2 kts 246°
2026-05-04 18:48 47.25842 11.34814 1888 ft 0 kts 262°
2026-05-04 18:50 47.25844 11.34760 1895 ft 12 kts 268°
2026-05-04 18:50 47.25828 11.34598 1899 ft 17 kts 261°
2026-05-04 18:51 47.25811 11.34433 1899 ft 19 kts 261°
2026-05-04 18:51 47.25785 11.34196 1896 ft 25 kts 262°
2026-05-04 18:51 47.25782 11.33942 1891 ft 25 kts 295°
2026-05-04 18:51 47.25881 11.33739 1897 ft 23 kts 310°
2026-05-04 18:52 47.25931 11.33583 1903 ft 16 kts 265°
2026-05-04 18:52 47.25905 11.33350 1895 ft 29 kts 262°
2026-05-04 18:52 47.25862 11.33183 1896 ft 8 kts 215°
2026-05-04 18:52 47.25872 11.33169 1888 ft 8 kts 28°
2026-05-04 18:53 47.25894 11.33351 1894 ft 43 kts 85°
2026-05-04 18:53 47.25993 11.34157 1899 ft 114 kts 81°
2026-05-04 18:53 47.26140 11.35548 2138 ft 146 kts 87°
2026-05-04 18:53 47.26286 11.37023 2855 ft 148 kts 83°
2026-05-04 18:54 47.26435 11.38532 3375 ft 156 kts 85°
2026-05-04 18:54 47.26596 11.40218 3642 ft 175 kts 85°
2026-05-04 18:54 47.26775 11.42049 4109 ft 180 kts 85°
2026-05-04 18:54 47.26962 11.43855 4748 ft 178 kts 83°
2026-05-04 18:55 47.27317 11.45633 5250 ft 185 kts 71°
2026-05-04 18:55 47.28284 11.49238 6274 ft 194 kts 70°
2026-05-04 18:55 47.28829 11.51057 6832 ft 194 kts 70°
2026-05-04 18:56 47.29373 11.52891 7386 ft 196 kts 70°
2026-05-04 18:56 47.29923 11.54741 7938 ft 198 kts 70°
2026-05-04 18:56 47.30472 11.56627 8440 ft 203 kts 71°
2026-05-04 18:56 47.31014 11.58562 8942 ft 206 kts 71°
2026-05-04 18:57 47.31528 11.60549 9458 ft 207 kts 85°
2026-05-04 18:57 47.31329 11.62554 9921 ft 196 kts 130°
2026-05-04 18:57 47.30319 11.63712 10404 ft 182 kts 173°
2026-05-04 18:57 47.29129 11.63447 10812 ft 176 kts 218°
2026-05-04 18:58 47.28353 11.62053 11230 ft 180 kts 234°
2026-05-04 18:58 47.27711 11.60468 11723 ft 182 kts 245°
2026-05-04 18:58 47.27282 11.58702 12207 ft 184 kts 250°
2026-05-04 18:58 47.26901 11.56889 12677 ft 186 kts 251°
2026-05-04 18:59 47.26512 11.55054 13125 ft 189 kts 250°
2026-05-04 18:59 47.26096 11.53159 13402 ft 204 kts 250°
2026-05-04 18:59 47.25620 11.51081 13534 ft 226 kts 250°
2026-05-04 18:59 47.25087 11.48815 13714 ft 249 kts 250°
2026-05-04 19:00 47.24481 11.46292 13917 ft 273 kts 249°
2026-05-04 19:00 47.23814 11.43550 14083 ft 297 kts 249°
2026-05-04 19:00 47.23238 11.40526 14289 ft 317 kts 265°
2026-05-04 19:00 47.23508 11.37257 14747 ft 332 kts 281°
2026-05-04 19:01 47.24206 11.33894 14886 ft 355 kts 288°
2026-05-04 19:01 47.25138 11.30460 15255 ft 367 kts 291°
2026-05-04 19:01 47.26162 11.26984 15781 ft 373 kts 291°
2026-05-04 19:01 47.27192 11.23466 16380 ft 376 kts 290°
2026-05-04 19:02 47.28197 11.19887 17005 ft 379 kts 289°
2026-05-04 19:02 47.29166 11.16265 17622 ft 382 kts 288°
2026-05-04 19:02 47.30112 11.12590 18229 ft 385 kts 288°
2026-05-04 19:02 47.31048 11.08874 18721 ft 388 kts 287°
2026-05-04 19:03 47.31984 11.05123 19230 ft 391 kts 287°
2026-05-04 19:03 47.32925 11.01349 19737 ft 394 kts 288°
2026-05-04 19:03 47.33877 10.97545 20255 ft 397 kts 288°
2026-05-04 19:03 47.35081 10.93854 20743 ft 404 kts 301°
2026-05-04 19:04 47.36765 10.90507 21186 ft 408 kts 304°
2026-05-04 19:04 47.38494 10.87171 21651 ft 411 kts 305°
2026-05-04 19:04 47.40233 10.83812 22130 ft 413 kts 305°
2026-05-04 19:04 47.41985 10.80427 22606 ft 415 kts 304°
2026-05-04 19:05 47.43743 10.77026 23073 ft 418 kts 304°
2026-05-04 19:05 47.45515 10.73592 23522 ft 421 kts 304°
2026-05-04 19:05 47.47293 10.70136 23894 ft 424 kts 304°
2026-05-04 19:05 47.49057 10.66696 24254 ft 426 kts 304°
2026-05-04 19:06 47.50849 10.63189 24631 ft 428 kts 304°
2026-05-04 19:06 47.52653 10.59657 24996 ft 430 kts 304°
2026-05-04 19:06 47.54586 10.56259 25360 ft 434 kts 312°
2026-05-04 19:06 47.56887 10.53322 25706 ft 439 kts 322°
2026-05-04 19:07 47.59400 10.50733 26080 ft 442 kts 322°
2026-05-04 19:07 47.61936 10.48120 26392 ft 445 kts 322°
2026-05-04 19:07 47.64484 10.45481 26726 ft 448 kts 322°
2026-05-04 19:07 47.67045 10.42819 27053 ft 450 kts 322°
2026-05-04 19:08 47.69613 10.40146 27391 ft 452 kts 322°
2026-05-04 19:08 47.72195 10.37456 27713 ft 455 kts 322°
2026-05-04 19:08 47.74784 10.34746 28022 ft 456 kts 321°
2026-05-04 19:08 47.77331 10.31905 28335 ft 457 kts 319°
2026-05-04 19:09 47.79808 10.28943 28653 ft 458 kts 317°
2026-05-04 19:09 47.82260 10.25886 28950 ft 460 kts 317°
2026-05-04 19:09 47.84679 10.22826 29238 ft 462 kts 317°
2026-05-04 19:09 47.87132 10.19733 29549 ft 463 kts 317°
2026-05-04 19:10 47.89600 10.16656 29967 ft 463 kts 317°
2026-05-04 19:10 47.92081 10.13593 30290 ft 463 kts 317°
2026-05-04 19:10 47.94567 10.10547 30629 ft 463 kts 317°
2026-05-04 19:10 47.97057 10.07507 30970 ft 462 kts 317°
2026-05-04 19:11 47.99541 10.04472 31309 ft 461 kts 317°
2026-05-04 19:11 48.02019 10.01436 31680 ft 460 kts 317°
2026-05-04 19:11 48.04494 9.98398 31925 ft 460 kts 317°
2026-05-04 19:11 48.06959 9.95358 31952 ft 459 kts 317°
2026-05-04 19:12 48.14329 9.86224 31948 ft 458 kts 317°
2026-05-04 19:13 48.19217 9.80155 31947 ft 460 kts 317°
2026-05-04 19:13 48.24149 9.74018 31958 ft 461 kts 316°
2026-05-04 19:14 48.29072 9.67879 31954 ft 460 kts 316°
2026-05-04 19:14 48.33992 9.61727 31962 ft 460 kts 316°
2026-05-04 19:15 48.38882 9.55535 31970 ft 459 kts 316°
2026-05-04 19:15 48.43720 9.49321 31980 ft 460 kts 315°
2026-05-04 19:16 48.48599 9.43031 31977 ft 461 kts 315°
2026-05-04 19:16 48.53675 9.36482 31979 ft 461 kts 315°
2026-05-04 19:17 48.58528 9.30775 31976 ft 466 kts 326°
2026-05-04 19:17 48.61484 9.28665 31975 ft 471 kts 337°
2026-05-04 19:17 48.64662 9.27379 31975 ft 476 kts 348°
2026-05-04 19:17 48.67963 9.26973 31975 ft 479 kts 359°
2026-05-04 19:18 48.71301 9.27361 31981 ft 481 kts
2026-05-04 19:18 48.77970 9.28396 31975 ft 481 kts
2026-05-04 19:19 48.84632 9.29414 31977 ft 481 kts
2026-05-04 19:19 48.91306 9.30426 31977 ft 482 kts
2026-05-04 19:20 48.97971 9.31456 31976 ft 481 kts
2026-05-04 19:20 49.04635 9.32490 31977 ft 481 kts
2026-05-04 19:21 49.11260 9.33520 31978 ft 481 kts
2026-05-04 19:21 49.17918 9.34543 31976 ft 481 kts
2026-05-04 19:22 49.24588 9.35580 31981 ft 481 kts
2026-05-04 19:22 49.31245 9.36628 31976 ft 482 kts
2026-05-04 19:23 49.37927 9.37686 31982 ft 483 kts
2026-05-04 19:23 49.44603 9.38736 31981 ft 482 kts
2026-05-04 19:24 49.51274 9.39771 31986 ft 482 kts
2026-05-04 19:24 49.57938 9.40814 31986 ft 482 kts
2026-05-04 19:25 49.64602 9.41874 31973 ft 481 kts
2026-05-04 19:25 49.71256 9.42944 31986 ft 480 kts
2026-05-04 19:26 49.77905 9.44008 31974 ft 481 kts
2026-05-04 19:26 49.84557 9.45069 31983 ft 480 kts
2026-05-04 19:27 49.91195 9.46132 31989 ft 480 kts
2026-05-04 19:27 49.97797 9.47202 31986 ft 480 kts
2026-05-04 19:28 50.04392 9.46878 31984 ft 471 kts 344°
2026-05-04 19:28 50.10446 9.43357 31977 ft 461 kts 325°
2026-05-04 19:29 50.15533 9.37456 31989 ft 455 kts 316°
2026-05-04 19:29 50.19625 9.32283 31986 ft 455 kts 316°
2026-05-04 19:30 50.24545 9.26052 31984 ft 455 kts 316°
2026-05-04 19:30 50.29461 9.19798 31997 ft 457 kts 316°
2026-05-04 19:31 50.34394 9.13503 31987 ft 457 kts 316°
2026-05-04 19:31 50.39325 9.07201 31987 ft 457 kts 316°
2026-05-04 19:32 50.44252 9.00882 31986 ft 457 kts 316°
2026-05-04 19:32 50.49145 8.94584 31986 ft 457 kts 316°
2026-05-04 19:33 50.54066 8.88256 31995 ft 458 kts 316°
2026-05-04 19:33 50.59101 8.82146 31983 ft 457 kts 318°
2026-05-04 19:34 50.64190 8.76161 31987 ft 457 kts 318°
2026-05-04 19:34 50.69259 8.70124 31985 ft 456 kts 317°
2026-05-04 19:35 50.74307 8.64034 31986 ft 456 kts 317°
2026-05-04 19:35 50.79331 8.57922 31988 ft 456 kts 317°
2026-05-04 19:36 50.84360 8.51801 31988 ft 456 kts 317°
2026-05-04 19:36 50.89403 8.45650 31994 ft 458 kts 317°
2026-05-04 19:37 50.94460 8.39469 31995 ft 460 kts 317°
2026-05-04 19:37 50.99520 8.33271 31991 ft 460 kts 317°
2026-05-04 19:38 51.04919 8.27709 32005 ft 465 kts 325°
2026-05-04 19:38 51.07732 8.25205 31786 ft 462 kts 325°
2026-05-04 19:38 51.10537 8.22716 30952 ft 463 kts 326°
2026-05-04 19:38 51.13362 8.20211 30056 ft 465 kts 326°
2026-05-04 19:39 51.16200 8.17689 28964 ft 468 kts 326°
2026-05-04 19:39 51.19046 8.15157 28029 ft 468 kts 326°
2026-05-04 19:39 51.21875 8.12637 27300 ft 464 kts 327°
2026-05-04 19:39 51.24671 8.10135 26593 ft 459 kts 327°
2026-05-04 19:40 51.27456 8.07634 25804 ft 458 kts 327°
2026-05-04 19:40 51.30220 8.05148 25241 ft 452 kts 327°
2026-05-04 19:40 51.32945 8.02697 25019 ft 448 kts 327°
2026-05-04 19:40 51.35652 8.00256 24976 ft 446 kts 327°
2026-05-04 19:41 51.38355 7.97815 24990 ft 447 kts 327°
2026-05-04 19:41 51.41062 7.95370 24986 ft 445 kts 327°
2026-05-04 19:41 51.43621 7.92816 24985 ft 438 kts 325°
2026-05-04 19:41 51.46385 7.90612 24579 ft 438 kts 333°
2026-05-04 19:42 51.49146 7.88710 23845 ft 438 kts 334°
2026-05-04 19:42 51.51937 7.86778 23158 ft 434 kts 334°
2026-05-04 19:42 51.54695 7.84856 22483 ft 431 kts 334°
2026-05-04 19:42 51.57429 7.82925 21831 ft 427 kts 334°
2026-05-04 19:43 51.60130 7.81001 21187 ft 423 kts 334°
2026-05-04 19:43 51.62815 7.79084 20554 ft 420 kts 334°
2026-05-04 19:43 51.65480 7.77177 19936 ft 418 kts 334°
2026-05-04 19:43 51.68115 7.75244 19339 ft 414 kts 330°
2026-05-04 19:44 51.70439 7.72596 18779 ft 405 kts 313°
2026-05-04 19:44 51.72179 7.69095 18206 ft 397 kts 297°
2026-05-04 19:44 51.73227 7.65041 17580 ft 389 kts 281°
2026-05-04 19:44 51.73546 7.60769 16969 ft 381 kts 266°
2026-05-04 19:45 51.73290 7.56535 16363 ft 378 kts 261°
2026-05-04 19:45 51.72982 7.52403 16101 ft 368 kts 261°
2026-05-04 19:45 51.72675 7.48360 15973 ft 354 kts 261°
2026-05-04 19:45 51.72387 7.44505 15839 ft 334 kts 261°
2026-05-04 19:46 51.72122 7.40905 15649 ft 314 kts 261°
2026-05-04 19:46 51.71863 7.37450 15424 ft 304 kts 261°
2026-05-04 19:46 51.71615 7.34167 15279 ft 286 kts 260°
2026-05-04 19:46 51.71376 7.31048 14979 ft 276 kts 260°
2026-05-04 19:47 51.71142 7.28009 14674 ft 271 kts 260°
2026-05-04 19:47 51.70910 7.25005 14237 ft 270 kts 261°
2026-05-04 19:47 51.70676 7.21992 13929 ft 271 kts 261°
2026-05-04 19:47 51.70291 7.19044 13665 ft 268 kts 249°
2026-05-04 19:48 51.69632 7.16243 13371 ft 266 kts 247°
2026-05-04 19:48 51.68912 7.13504 13086 ft 264 kts 239°
2026-05-04 19:48 51.67888 7.11111 12785 ft 262 kts 231°
2026-05-04 19:48 51.66778 7.08741 12487 ft 261 kts 231°
2026-05-04 19:49 51.65700 7.06437 12207 ft 260 kts 231°
2026-05-04 19:49 51.64612 7.04114 11918 ft 260 kts 231°
2026-05-04 19:49 51.63524 7.01800 11630 ft 259 kts 231°
2026-05-04 19:49 51.62441 6.99498 11339 ft 258 kts 231°
2026-05-04 19:50 51.61360 6.97203 11050 ft 257 kts 231°
2026-05-04 19:50 51.60284 6.94915 10757 ft 256 kts 231°
2026-05-04 19:50 51.59217 6.92651 10552 ft 251 kts 231°
2026-05-04 19:50 51.58029 6.90646 10293 ft 246 kts 211°
2026-05-04 19:51 51.56433 6.89809 10004 ft 243 kts 181°
2026-05-04 19:51 51.54802 6.90420 9669 ft 243 kts 154°
2026-05-04 19:51 51.53264 6.91524 9289 ft 242 kts 169°
2026-05-04 19:51 51.51596 6.91688 9008 ft 239 kts 182°
2026-05-04 19:52 51.49930 6.91581 8968 ft 241 kts 183°
2026-05-04 19:52 51.48254 6.91444 8972 ft 241 kts 183°
2026-05-04 19:52 51.46575 6.91302 8977 ft 242 kts 183°
2026-05-04 19:52 51.44895 6.91162 8972 ft 242 kts 183°
2026-05-04 19:53 51.43215 6.91022 8973 ft 241 kts 183°
2026-05-04 19:53 51.41535 6.90881 8974 ft 241 kts 183°
2026-05-04 19:53 51.39862 6.90740 8978 ft 241 kts 183°
2026-05-04 19:53 51.38184 6.90595 8981 ft 241 kts 183°
2026-05-04 19:54 51.36512 6.90586 8953 ft 240 kts 171°
2026-05-04 19:54 51.34999 6.91646 8675 ft 240 kts 147°
2026-05-04 19:54 51.33679 6.93268 8314 ft 239 kts 144°
2026-05-04 19:54 51.32392 6.94954 7949 ft 238 kts 143°
2026-05-04 19:55 51.31117 6.96635 7614 ft 237 kts 143°
2026-05-04 19:55 51.29887 6.98394 7278 ft 238 kts 132°
2026-05-04 19:55 51.29202 7.00799 6953 ft 243 kts 100°
2026-05-04 19:55 51.29396 7.03453 6615 ft 249 kts 69°
2026-05-04 19:56 51.30307 7.05818 6251 ft 251 kts 55°
2026-05-04 19:56 51.31371 7.08042 5891 ft 251 kts 53°
2026-05-04 19:56 51.32445 7.10229 5540 ft 250 kts 54°
2026-05-04 19:56 51.33526 7.12416 5207 ft 250 kts 53°
2026-05-04 19:57 51.34594 7.14575 5020 ft 243 kts 53°
2026-05-04 19:57 51.35609 7.16629 5019 ft 231 kts 52°
2026-05-04 19:57 51.36578 7.18618 5015 ft 227 kts 53°
2026-05-04 19:57 51.37553 7.20659 5022 ft 229 kts 53°
2026-05-04 19:58 51.38514 7.22691 5023 ft 229 kts 53°
2026-05-04 19:58 51.39464 7.24703 5024 ft 230 kts 53°
2026-05-04 19:58 51.40427 7.26745 5019 ft 230 kts 53°
2026-05-04 19:58 51.41390 7.28782 5020 ft 230 kts 53°
2026-05-04 19:59 51.42353 7.30822 5024 ft 230 kts 53°
2026-05-04 19:59 51.43315 7.32860 5023 ft 229 kts 53°
2026-05-04 19:59 51.44283 7.34900 5024 ft 230 kts 51°
2026-05-04 19:59 51.45532 7.36431 5025 ft 228 kts 18°
2026-05-04 20:00 51.47072 7.36626 5028 ft 222 kts 342°
2026-05-04 20:00 51.48406 7.35509 5028 ft 215 kts 310°
2026-05-04 20:00 51.49115 7.33496 4899 ft 205 kts 276°
2026-05-04 20:00 51.49183 7.31220 4747 ft 205 kts 265°
2026-05-04 20:01 51.49111 7.28935 4552 ft 206 kts 264°
2026-05-04 20:01 51.49013 7.26646 4278 ft 206 kts 263°
2026-05-04 20:01 51.48911 7.24361 4038 ft 205 kts 263°
2026-05-04 20:01 51.48803 7.22080 3840 ft 204 kts 263°
2026-05-04 20:02 51.48693 7.19792 3720 ft 208 kts 264°
2026-05-04 20:02 51.48416 7.17534 3592 ft 205 kts 244°
2026-05-04 20:02 51.47635 7.15633 3469 ft 205 kts 231°
2026-05-04 20:02 51.46787 7.13832 3346 ft 205 kts 231°
2026-05-04 20:03 51.45918 7.11980 3220 ft 205 kts 231°
2026-05-04 20:03 51.45064 7.10162 3100 ft 205 kts 231°
2026-05-04 20:03 51.44217 7.08359 3023 ft 204 kts 231°
2026-05-04 20:03 51.43349 7.06513 3023 ft 204 kts 231°
2026-05-04 20:04 51.42491 7.04692 3028 ft 205 kts 231°
2026-05-04 20:04 51.41636 7.02876 3028 ft 205 kts 231°
2026-05-04 20:04 51.40787 7.01075 3031 ft 205 kts 231°
2026-05-04 20:04 51.39918 6.99233 3031 ft 205 kts 231°
2026-05-04 20:05 51.39072 6.97441 3026 ft 200 kts 231°
2026-05-04 20:05 51.38257 6.95715 2914 ft 189 kts 231°
2026-05-04 20:05 51.37478 6.94065 2688 ft 183 kts 231°
2026-05-04 20:05 51.36720 6.92462 2450 ft 177 kts 231°
2026-05-04 20:06 51.35997 6.90937 2223 ft 170 kts 231°
2026-05-04 20:06 51.35286 6.89435 1989 ft 169 kts 231°
2026-05-04 20:06 51.34581 6.87948 1761 ft 165 kts 231°
2026-05-04 20:06 51.33929 6.86569 1543 ft 147 kts 230°
2026-05-04 20:07 51.33329 6.85304 1357 ft 139 kts 230°
2026-05-04 20:07 51.32752 6.84089 1165 ft 136 kts 229°
2026-05-04 20:07 51.32229 6.82983 1000 ft 138 kts 230°
2026-05-04 20:07 51.31719 6.81897 832 ft 139 kts 231°
2026-05-04 20:08 51.31137 6.80669 668 ft 138 kts 229°
2026-05-04 20:08 51.30559 6.79451 484 ft 137 kts 231°
2026-05-04 20:08 51.29990 6.78261 277 ft 135 kts 231°
2026-05-04 20:08 51.29432 6.77105 134 ft 123 kts 232°
2026-05-04 20:09 51.29011 6.76217 126 ft 75 kts 233°
2026-05-04 20:09 51.28787 6.75776 126 ft 35 kts 219°
2026-05-04 20:09 51.28606 6.75679 123 ft 23 kts 178°
2026-05-04 20:09 51.28498 6.75732 124 ft 13 kts 150°
2026-05-04 20:10 51.28449 6.75787 124 ft 6 kts 142°
2026-05-04 20:10 51.28425 6.75818 125 ft 4 kts 142°
2026-05-04 20:10 51.28411 6.75835 125 ft 2 kts 141°
2026-05-04 20:10 51.28406 6.75841 125 ft 0 kts 141°
2026-05-04 20:12 51.28406 6.75842 125 ft 1 kts 141°
2026-05-04 20:12 51.28353 6.75910 127 ft 13 kts 141°
2026-05-04 20:13 51.28281 6.75996 126 ft 14 kts 144°
2026-05-04 20:13 51.28214 6.76070 126 ft 7 kts 149°
2026-05-04 20:13 51.28187 6.76117 125 ft 5 kts 99°
2026-05-04 20:13 51.28196 6.76159 127 ft 5 kts 64°
2026-05-04 20:14 51.28202 6.76227 124 ft 7 kts 119°
2026-05-04 20:14 51.28162 6.76284 125 ft 8 kts 138°
2026-05-04 20:14 51.28128 6.76362 124 ft 10 kts 114°
2026-05-04 20:14 51.28114 6.76463 123 ft 8 kts 98°
2026-05-04 20:15 51.28109 6.76536 128 ft 0 kts 94°
2026-05-04 20:15 51.28108 6.76546 127 ft 4 kts 94°
2026-05-04 20:15 51.28108 6.76547 127 ft 0 kts 94°